CAPE
3088 3343 3151 2914 2905 2995 2891 2931 2743 2943 3129 3025 2934 2888 2806 2704 2796 2565 2637 2652 2711 3110 3387 3155 3040 3261 3027 3009 2565 2574 2898 2843 2844 3038 3302 3278 3265 3235 2962 3147 3258 3243 3500 3334 3002 3280 3722 3896 3944 3944 3693 3668 3376 3087 2861 3075 3393 3457 3319 3356 3336 3341 3278 3218 3010 2880 2908 2654 2504 2387 2333 2505 2109 2171 2336 2492 2698 2694 2401 2684 2547 2292 2149 2107 2091
3168 3355 3150 3023 3132 3252 3281 3192 3129 3104 3217 3029 3035 2938 2990 2997 2883 2788 2630 2906 2774 2985 3302 3188 3003 3076 3122 3065 3104 2936 3200 3641 3107 2912 3070 3295 3461 3180 3134 3239 3336 3156 3370 3772 3721 3399 3668 4217 4198 3870 4060 4174 3481 3100 3013 2834 2876 3069 3424 3328 3220 3255 3385 3292 3249 3060 2978 2931 2932 3041 3101 3144 3035 3031 3009 2812 2824 2785 2702 2573 2887 3076 2829 2523 2278
2951 3346 3372 3368 3508 3533 3380 3278 3162 3352 3176 2990 2880 2901 3135 3137 2886 2922 2611 2786 3008 3002 3061 3009 3128 3246 3257 3160 3442 3368 3427 3688 3434 3077 3151 3367 3607 3042 2831 3148 3273 3224 3400 3598 3828 3877 3884 4105 4115 3788 3645 4074 4249 3657 3008 2845 2789 2796 2898 2999 3249 3274 3315 3596 3532 3430 3326 3306 3181 3052 2871 3033 3245 3263 3249 3234 3195 3251 3294 3214 2771 2651 2704 2822 2842
2904 3298 3374 3454 3510 3510 3592 3523 3411 3279 2988 2930 2889 2799 2838 3000 2972 2921 2828 2599 2897 3058 2832 2819 3083 3452 3617 3327 3517 3652 3566 3533 3611 3340 3427 3641 3682 3709 3234 3239 3404 3537 3471 3529 3707 3766 3651 3880 3756 3182 3422 3960 4138 3916 3722 3574 3407 3499 3383 3404 3370 3346 3507 3626 3448 3070 2925 3114 3400 3422 3577 3643 3594 3561 3631 3622 3464 3388 3273 3088 3008 2997 2931 2807 2720
2839 3229 3393 3255 3287 3476 3460 3345 3332 3274 3041 2862 2887 2835 2655 2773 2999 2993 2882 2529 2627 2917 2962 2883 3039 3444 3500 3591 3617 3787 3795 3818 3783 3213 3218 3563 3704 3448 3455 3582 3631 3644 3527 3582 3650 3778 3798 3892 3639 3626 3724 3944 4142 4150 3847 4098 4071 3775 3794 3942 4108 4094 3650 3178 3116 2917 2864 2902 3098 3419 3494 3550 3686 3889 4015 3930 3943 3790 3699 3658 3587 3577 3566 3330 3050
2754 3102 3218 3169 3278 3386 3482 3266 3212 3266 3102 2905 2825 2779 2633 2706 2909 3003 2888 2698 2524 2549 3028 2944 2893 3303 3740 3552 3600 3729 3811 3796 3832 3558 2898 3167 3460 3417 3345 3637 3708 3892 3812 3559 3766 3937 3843 3893 3749 3773 3898 3941 4022 3866 4017 4129 4428 4127 3863 3805 3909 3778 3543 3386 3252 3056 2955 2808 2941 3206 3522 3439 3470 3392 3449 3549 3688 3902 3964 3998 3838 3746 3694 3588 3467
2862 3040 3205 3052 3296 3316 3328 3213 3204 3139 3278 2968 2838 2812 2679 2589 2708 2916 2921 2764 2501 2450 2752 3092 3010 3225 3732 3672 3442 3716 3884 3804 3902 3851 3398 3029 3158 3578 3172 3279 3570 3748 3909 3639 3419 3556 3772 3934 3936 3873 3960 3881 3752 3561 3884 4314 4237 4004 3770 3885 4074 3837 3517 3458 3433 3226 3071 3013 3153 3298 3361 3376 3240 3271 3427 3331 3231 3352 3566 3689 3740 3732 3879 3687 3717
2938 3152 3196 3070 3241 3224 3249 3188 3256 3197 3262 3329 3081 2902 2784 2631 2727 2870 3032 2808 2518 2424 2501 2877 3134 3178 3530 3626 3524 3547 3882 3920 3912 3982 3849 3350 3074 3439 3739 3365 3182 3509 3636 3735 3463 3002 3195 3472 3295 3724 4040 4230 4203 4024 3846 3877 4136 4206 4044 4058 4030 3775 3479 3277 3308 3171 3139 3124 3174 3254 3194 3300 3277 3331 3354 3367 3383 3484 3845 4025 4041 4033 4050 4145 3836
2876 3070 3230 3265 3325 3465 3576 3374 3319 3369 3384 3462 3238 3036 2968 2902 2902 3008 3140 2954 2594 2453 2474 2586 3054 3227 3310 3543 3536 3407 3589 3918 3835 3950 4006 3931 3518 3160 3466 3625 3432 3246 3472 3523 3508 3540 3092 2771 2871 3046 3487 4402 4151 4166 4112 4157 4148 4245 4549 4460 4292 3908 3626 3205 3063 3176 3071 3110 3029 2939 2728 2918 3086 3192 3169 3258 3466 3776 3918 3928 4032 4034 3979 3913 3927
3003 3216 3282 3232 3312 3506 3668 3504 3469 3484 3392 3448 3491 3288 3126 3121 2971 3018 3142 3149 2955 2771 2693 2660 2778 3145 3322 3490 3578 3535 3497 3707 3635 3163 3443 3798 3760 3170 3270 3611 3736 3472 3474 3467 3111 3113 3291 3112 2299 2840 3289 3820 3830 3693 3580 3402 3354 3239 3578 4159 4422 4255 3672 3464 3378 3300 3177 3028 2888 2778 2723 2723 2781 2960 3007 3233 3582 3998 4070 4252 4388 4178 3927 3983 3767
3182 3216 3251 3224 3440 3673 3765 3654 3658 3689 3620 3614 3641 3481 3336 3231 3170 3315 3343 3294 3247 3246 3073 2920 2720 2846 3167 3396 3550 3502 3534 3607 3123 2983 2912 3046 3552 3802 3558 3674 3988 3979 3787 3799 3704 3055 2729 2959 3228 3471 4072 3356 3557 3192 3241 3005 2851 2662 2449 2570 3070 3918 3959 3859 3829 3683 3283 3273 2993 2994 3048 3129 3252 3442 3757 3840 4152 4219 4258 4353 4323 4011 3945 3514 3418
3220 3326 3270 3349 3727 3885 3799 3819 3752 3809 3791 3753 3806 3660 3434 3432 3436 3499 3444 3412 3496 3345 3242 3174 3139 2890 2955 3275 3387 3478 3589 3258 2987 2790 2596 2596 2794 3237 3528 3607 3538 3794 3937 3636 3610 3482 3125 2632 2855 3411 3782 3968 3962 4207 3122 2683 2580 2470 2437 2382 2295 2278 2504 3267 3727 3820 3778 3467 3302 3476 3559 3532 3912 4133 4062 4125 4374 4543 4754 4660 4636 3970 3727 3443 3533
3324 3400 3298 3513 3979 4084 3854 3874 3829 3918 3949 3906 3925 3852 3671 3653 3553 3549 3439 3458 3486 3541 3570 3366 3335 3254 3050 3222 3190 3346 3593 3156 2925 2657 2454 2270 2167 2261 2592 3031 3292 3440 3581 3872 3873 3826 3694 3551 3394 3108 3433 4107 4056 3910 4321 4500 3856 3387 2932 2624 2482 2431 2382 2356 2354 2705 3474 3592 3507 3498 3547 3549 3832 4233 4248 4339 4451 4657 4405 4944 5183 4466 3879 3420 3564
3377 3347 3441 3686 4023 4082 3948 3930 3925 3936 4060 3955 4005 3986 3819 3783 3532 3425 3405 3556 3644 3630 3407 3493 3491 3585 3376 3300 3302 3304 3400 3007 2896 2638 2399 2192 2044 1939 2574 2517 2790 3039 3456 3732 3849 3980 4201 4138 4068 4066 3820 3991 4196 4176 4176 4200 4414 4296 3800 3546 3359 3227 3180 3031 2840 2630 2493 2815 3347 3531 3804 4056 4028 4166 4231 4126 4399 4602 4580 4691 4572 4166 3830 3333 3414
3346 3439 3536 3829 3975 4029 4081 3962 3999 4082 4054 3999 4018 3982 3869 3835 3649 3391 3313 3427 3622 3717 3661 3597 3595 3694 3610 3385 3265 3249 3086 2666 2708 2620 2387 2171 1981 1830 2548 2608 2714 2978 3040 3463 3822 4054 4206 4363 4406 4239 4160 4280 4342 4494 4660 4685 4739 4633 4562 4377 4402 4647 4654 4145 3872 3623 3408 3234 3108 3454 3740 3788 3974 4119 4354 4123 4068 4035 3962 4177 4122 3824 3664 3665 3409
3341 3460 3520 3776 3906 3948 4084 3999 3952 4021 4022 3966 3938 3890 3907 3901 3838 3498 3252 3304 3483 3578 3638 3502 3615 3632 3598 3522 3156 3196 3092 2548 2515 2462 2362 2172 1973 1792 2385 2751 2828 2975 3286 3240 3715 4089 4231 4365 4470 4434 4375 4359 4063 3750 3946 4336 4555 4554 4486 4389 4147 4143 4083 3965 3799 3588 3589 3246 3339 3599 3689 3427 3412 4273 4071 3530 3934 3868 3631 3550 3682 3826 3734 3674 3217
3399 3603 3448 3656 3784 3932 3945 3891 3919 3896 3877 3846 3813 3792 3823 3886 3804 3635 3436 3273 3278 3391 3497 3441 3482 3517 3494 3560 3530 3358 3436 3031 2508 2363 2262 2157 1989 2047 2429 2625 2880 3062 3279 3390 3624 4009 4234 4480 4476 4463 4459 4634 4206 3800 3569 3548 3935 3829 3807 3910 3999 3991 3810 4031 4050 3556 3427 3280 3234 3180 3463 3529 3594 3607 3583 3530 3646 3870 3946 3863 3769 3708 3447 3126 2931
3362 3697 3427 3548 3857 3932 3922 3840 3902 3922 3854 3790 3766 3646 3679 3743 3759 3674 3450 3237 2988 3182 3419 3604 3573 3507 3378 3492 3454 3625 3477 3217 2776 2500 2304 2117 2007 2382 2702 2788 2990 3212 3386 3582 3677 3871 4107 3682 4083 4334 4456 4534 3975 3726 3708 3523 4190 4058 4057 3943 3958 3988 4149 4116 3953 4971 3358 3433 3611 3614 3638 3722 3752 3785 3765 3775 4007 4020 3926 3763 3667 3609 2958 2476 2392
3291 3578 3611 3687 3826 3825 3770 3834 3804 3782 3806 3786 3695 3696 3708 3739 3700 3613 3445 3266 2997 3218 3292 3477 3600 3615 3419 3339 3176 3237 3497 3271 2867 2668 2389 2185 2025 2541 2816 2966 3051 3293 3408 3698 3753 3794 3942 3786 3250 3510 3976 4358 3826 3669 3572 3590 4146 4159 3949 4192 4086 4103 4137 4146 4082 4043 4755 4803 4683 4332 4182 4296 4363 3822 3858 4048 4012 3891 3623 3271 3310 3127 2231 2028 1923
3283 3463 3594 3720 3821 3760 3670 3837 3839 3754 3795 3887 3691 3746 3662 3546 3639 3650 3547 3393 3283 3171 3217 3336 3549 3618 3512 3362 3306 3181 3197 3697 3034 2704 2484 2287 2099 2391 2970 3114 3179 3309 3555 3405 3601 3785 3713 3924 3728 3252 3072 3203 3292 3298 3367 3356 3797 4059 4013 3982 4036 4106 4146 4099 4129 4094 4578 4660 4802 4737 4966 4441 4100 4005 4053 4000 3818 3406 3005 2858 3254 2728 2169 1677 1675
3441 3690 3714 3546 3536 3675 3635 3794 3724 3661 3742 3847 3698 3644 3608 3586 3496 3646 3633 3438 3472 3430 3226 3278 3328 3641 3606 3569 3526 3386 3310 3345 3669 2922 2698 2461 2278 2282 2802 3106 3254 3450 3554 3335 3414 3378 3481 3574 3844 3590 3431 3317 3147 2954 2766 2732 2780 3570 3793 3972 4061 4376 4216 4232 4133 3740 4158 4429 4530 4532 4365 3772 3832 4090 4022 3915 3727 2070 2185 2980 2597 1745 1767 1834 1554
3602 3637 3816 3555 3596 3632 3609 3768 3782 3582 3698 3905 3919 3790 3802 3733 3665 3750 3561 3652 3699 3659 3707 3513 3524 3579 3667 3762 3748 3728 3525 3012 3697 3025 2781 2622 2456 2469 2426 2812 3183 3391 3503 3565 3454 3436 3433 3618 4002 3864 3507 3384 3228 2986 2735 2486 2324 2208 2986 2993 3028 3100 3439 3753 3905 3634 3652 3895 4165 3763 3704 4056 4208 4072 3674 2954 2444 1401 441 488 730 1155 1145 967 721
3778 3991 4030 3784 3628 3711 3770 3826 3778 3655 3680 3890 4078 4046 3988 3867 3806 3874 3950 3965 4032 3970 4085 3938 3858 3769 3756 3716 3581 3295 3335 3951 3138 3119 3003 2866 2743 2735 2695 2640 2557 3148 3387 3577 3544 3449 3597 3839 3716 3218 3388 3334 3177 2945 2737 2551 2342 2221 2108 2030 1987 2236 2446 2690 2906 3055 3236 3560 3575 3890 4115 4251 4159 3509 2905 2621 1935 943 1091 1022 1123 1038 960 844 713
4188 4230 4148 3865 3885 3853 3830 3789 3960 3794 3790 3932 4113 4280 4197 4101 4073 4167 4262 4098 3987 3987 3876 3724 3533 3566 3603 3280 3422 3542 4224 4146 3550 3300 3144 2948 3030 3056 3030 2965 2868 2798 2943 3245 3249 2955 3320 3661 3664 3201 3160 3080 3039 2931 2754 2575 2388 2276 2168 2094 2304 2544 2778 2985 3186 3394 3609 3739 3884 4062 4244 4078 3564 3107 2724 2136 1197 1483 1203 906 1059 1036 994 915 831
4474 4412 4219 4093 4134 3961 3975 4027 4083 3927 4000 4117 4331 4416 4485 4356 4344 4328 4395 4168 3833 3742 3756 3814 3969 3856 3865 3426 3951 3925 4047 3581 4125 3564 3464 3296 3320 3343 3337 3271 3195 3074 2976 2900 2756 3104 3206 2866 2952 3138 3216 3193 3080 2858 2668 2506 2371 2249 2251 2418 2635 2876 3064 3229 3449 3672 3776 3942 4042 4136 3968 3524 3158 2696 2199 1530 1339 1113 1334 1377 1052 893 809 831 806
4684 4572 4399 4255 4163 3978 4134 4205 4359 4220 4253 4312 4542 4652 4668 4557 4461 4478 4322 4000 3969 3936 4031 3938 4006 3860 3979 4125 3849 4019 3788 3850 4384 4026 3769 3714 3584 3600 3552 3532 3462 3338 3219 3056 2945 2799 2706 2709 2715 2806 2856 2979 2841 2740 2967 2805 2226 2335 2500 2675 2860 3047 3243 3413 3594 3652 3769 3971 4055 3798 3544 2981 2718 2324 1494 909 1180 1626 1247 1140 880 719 490 507 557
4682 4561 4501 4307 4412 4177 4214 4133 4418 4498 4448 4449 4598 4691 4646 4699 4651 4736 4530 4240 4188 4197 3971 4033 4031 3672 4127 4119 4152 4052 4020 4036 4498 4694 3860 3952 3845 3693 3719 3677 3621 3517 3406 3252 3089 2942 2833 2679 2558 2528 2399 2324 2478 2572 2496 2334 2335 2470 2600 2808 3019 3170 3420 3554 3656 3759 3972 3922 3840 3611 3062 2648 2315 1920 1359 1514 1375 1371 953 671 553 286 254 438 514
4646 4588 4547 4360 4434 4483 4515 4292 4456 4673 4621 4456 4450 4588 4569 4584 4754 4788 4775 4582 4462 4313 4297 4062 4015 3954 4056 4114 4506 4196 4188 4125 4355 4552 4394 4076 3986 3802 3804 3756 3686 3634 3536 3402 3244 3101 2969 2829 2705 2589 2454 2335 2286 2646 2588 2759 2700 2531 2664 2860 3088 3316 3551 3694 3829 3959 4011 3765 3245 2791 2710 2444 2258 1537 689 914 703 546 503 514 343 479 441 404 436
4541 4698 4663 4528 4648 4690 4831 4692 4662 4685 4776 4702 4677 5966 6441 4939 4835 4956 5045 5295 4946 4811 4739 4506 4091 4137 4160 4167 4263 4701 4604 4471 4822 4230 5698 4274 4687 3951 3863 3845 3781 3739 3645 3546 3404 3276 3158 3056 2932 2796 2676 2575 2697 2475 2714 2466 2543 2612 2788 2995 3233 3446 3610 3772 3866 3896 3734 3104 2730 2556 2620 2401 1450 700 811 499 720 504 498 528 524 580 574 458 408
4594 4848 4886 4887 5008 4909 4969 4961 4676 4587 4892 5100 5365 4324 4322 4435 4360 4735 5750 4662 4312 4242 4133 5308 4613 5052 4268 4445 4960 4838 5106 5062 4482 4296 4221 4205 4074 3820 3824 3845 3830 3766 3702 3644 3544 3474 3317 3271 3235 3134 3030 2926 2791 2688 2609 2540 2624 2806 2952 3212 3391 3581 3729 3848 3808 3414 3184 2890 2758 2629 2616 1475 703 673 635 418 468 351 401 73 466 440 426 300 176
4278 4462 4686 4688 4795 4974 4745 4948 4912 4797 4899 5462 5485 4434 4183 4247 4384 4437 4538 4795 4516 4369 4234 4238 4418 4357 4119 5312 4925 4238 4120 4126 4420 4341 4214 3951 3874 3836 3814 3790 3826 3869 3830 3724 3676 3602 3544 3437 3406 3366 3355 3297 3198 3035 2889 2744 2756 2980 3214 3443 3652 3713 3682 3424 3160 2998 2795 2596 2511 2120 1281 722 535 432 440 500 508 376 260 361 150 224 82 43 35
4925 4846 5021 4831 4788 4790 4965 4927 5368 5410 5300 5754 5632 4870 4467 4153 4198 4275 4313 4406 4538 4502 4357 4163 4155 4226 4251 4178 4420 5202 4366 4208 4060 3932 3914 3936 3946 3908 3868 3841 3854 3882 3902 3892 3850 3781 3682 3592 3559 3494 3496 3460 3415 3268 3083 2971 3040 3224 3476 3551 3361 3344 3077 2811 2840 2706 2378 2005 1550 988 604 482 480 483 504 497 325 70 215 109 54 18 11 6 0
5239 5390 5538 5389 5328 4883 5133 5360 5286 5391 4934 5400 5285 5082 4893 4519 3927 3947 4059 4221 4279 4369 4364 4255 4118 4003 3993 3985 3884 3899 3919 3948 3973 3995 4055 4069 4080 4040 4004 3974 3954 3981 3996 4006 4007 3923 3787 3643 3589 3558 3521 3529 3479 3343 3198 3072 3099 3294 3497 3308 3102 2809 2724 2736 2484 2125 2088 1800 1060 699 759 786 763 640 446 66 118 189 145 89 19 8 1 0 0
5460 5414 5668 5556 5565 5670 5490 5320 5105 5018 4749 4667 4355 4508 4211 4213 4335 3892 3704 3730 3907 4006 4013 4027 3989 3923 3917 3944 3996 4043 4041 4020 4021 4128 4218 4275 4276 4267 4230 4207 4185 4159 4136 4126 4032 4021 3885 3861 3812 3720 3654 3580 3530 3502 3400 3287 3357 3484 3343 2815 2410 2587 2640 2566 2426 2250 2087 1800 1480 1611 1478 1142 830 658 369 142 158 95 84 80 41 22 3 0 0
5204 5455 5205 5092 5292 5148 4953 4790 4626 4825 4747 4441 3922 3881 3843 3935 3933 3919 3673 3508 3543 3621 3678 3722 3781 3829 3898 3960 4012 4037 4080 4102 4159 4227 4295 4372 4449 4485 4497 4432 4408 4385 4327 4274 4242 4150 3584 3762 3631 3810 3655 3590 3640 3564 3565 3400 3039 3036 2793 2464 2502 2294 2356 2289 2226 2167 1991 1989 1407 1205 1097 975 598 123 1 2 43 151 143 55 20 0 3 5 0
4692 4980 5030 4859 4682 4882 4690 4891 4966 4874 4468 4511 4506 4070 3883 4252 4231 3833 3814 3525 3454 3418 3626 3706 3727 3651 3666 3909 4048 4171 4258 4291 4389 4459 4529 4595 4634 4641 4615 4622 4575 4565 4369 4204 3936 3883 3689 3947 4179 3898 3690 3566 3285 3276 3086 3004 2855 2445 2449 2527 2140 1932 2101 2118 2148 2156 1852 1396 1210 1150 960 667 27 7 3 2 43 72 76 50 0 0 0 0 0
3754 4150 4273 4440 4427 4681 4362 4640 4631 4520 3878 4074 4181 4340 4329 4305 4006 3701 3557 3486 3473 3620 3771 3876 3833 3777 3729 3764 3972 4188 4341 4541 4644 4764 4871 4836 4786 4718 4729 4614 4270 4106 3685 3601 3836 3947 4106 4155 4007 3723 3558 3463 3122 3000 2825 2699 2553 2446 2345 2198 2140 2272 2202 2157 1956 1780 1664 1532 1475 1351 1182 971 213 29 3 1 1 4 29 53 18 4 0 0 0
3182 3392 3558 3714 4343 4293 4328 4095 3834 3795 3608 3956 4286 4209 3680 3500 3500 3500 3477 3486 3718 3885 3905 3944 3937 3927 3909 3854 3758 3834 4036 4135 4256 4358 4451 4310 4045 3913 4225 4002 3840 3674 3333 3388 3547 3638 3566 3510 3486 3395 3216 3161 2963 2680 2525 2414 2311 2268 2284 2294 2037 2002 1753 1856 1906 1787 1518 1449 1405 1257 1093 324 18 22 2 2 2 3 1 0 2 3 0 10 107
3103 3261 3390 3568 3426 3565 3539 3910 4210 4097 3964 3671 3570 3445 3357 3538 3639 3715 3728 3754 3811 3922 3871 3951 3998 3970 3950 3970 3805 3644 3406 3374 3355 3431 3357 3240 3398 3448 3451 3530 3650 3596 3264 2980 3077 3184 3190 3082 3101 3072 2966 2792 2491 2378 2356 2458 2245 1943 1704 1740 1908 1997 1961 1640 1450 1446 1337 1210 836 328 15 42 41 64 30 4 4 6 5 6 5 7 6 6 5
2700 2872 3189 3450 3429 3350 3516 3879 4030 4091 4103 4040 3852 3885 3975 3942 3937 3846 3840 3932 3902 4003 4005 3976 3935 3754 3683 3464 3417 3270 3348 3344 3227 3297 3390 3263 3028 2979 3142 3037 2959 2950 2938 2831 2772 2860 3003 2768 2485 2253 2320 2381 2265 2170 2178 2143 2038 1995 1847 1711 1789 1725 1409 1288 1080 1062 692 35 23 7 19 24 35 24 32 10 6 6 6 7 7 6 2 1 0
2495 2726 2895 2966 3060 3265 3538 3800 3901 3969 4120 4062 4075 3967 4015 3990 4006 3993 3864 3850 3846 3847 3877 3637 3454 3332 3321 3331 3315 3353 3296 3107 2766 2683 2494 2496 2398 2394 2407 2582 2556 2363 2405 2286 2373 2595 2638 2394 2028 1996 2136 2177 2165 2083 2002 1915 1792 1635 1473 1335 1212 1229 1157 1081 990 960 880 770 362 8 15 24 8 9 7 6 5 1 0 0 2 2 5 4 12
1279 1220 1686 2168 2438 2699 3125 3402 3432 3500 3642 3746 3813 3890 3899 3865 3675 3563 3652 3756 3653 3663 3747 3748 3606 3438 3254 3030 3192 3076 2787 2701 2619 2495 2413 2480 2580 2734 2662 2409 2205 2303 2322 2213 2137 2219 2261 2112 1917 1912 1893 1705 1593 1627 1553 1492 1406 1315 1220 1122 1089 1055 982 987 936 857 690 313 7 10 10 9 10 2 6 0 0 6 8 12 14 13 13 11 12
671 616 638 1067 1502 1847 2221 2542 3040 3126 3254 3356 3399 3396 3399 3310 3227 3148 3141 3214 3260 3170 3059 3096 3120 3083 3140 3290 2972 2942 2829 2826 2823 2716 2617 2498 2284 2147 2126 2121 2117 2126 2115 2150 2256 2175 2141 2086 1910 1594 1304 1258 1314 1331 1500 1447 1293 1179 1100 1060 1015 989 930 853 710 335 0 0 2 2 6 1 6 2 15 10 12 13 19 21 18 18 20 22 16
365 429 655 792 806 1023 1401 1596 1772 2024 2548 2810 2943 3120 3267 3364 3411 3342 3269 3301 3340 3340 3341 3350 3121 2948 2896 2851 2816 2753 2966 2977 2887 2747 2634 2525 2316 2170 1932 1858 1883 1866 1853 1949 2006 1888 1814 1515 1290 1194 1180 1237 1264 1299 1273 1133 1090 1076 1020 952 843 708 581 450 335 0 0 0 0 0 4 6 6 0 5 10 16 16 13 12 22 28 23 17 19
311 401 482 605 703 728 901 1031 1267 1266 1408 1571 1872 2227 2507 2648 2744 2866 2916 2914 2931 2996 3092 3209 3089 3134 3051 2877 2704 2574 2471 2353 2224 2175 2178 2222 2143 1943 1752 1733 1730 1812 1788 1769 1742 1661 1528 1439 1325 1190 1110 1072 950 872 843 808 817 815 731 553 416 376 365 215 0 0 0 0 0 0 0 1 6 2 4 2 1 6 14 19 20 18 10 4 9
594 644 593 561 616 598 613 684 793 944 1044 1221 1278 1544 1836 1888 2024 2172 2247 2423 2506 2482 2552 2505 2488 2443 2426 2479 2477 2414 2292 2186 2139 2067 2005 1953 1766 1640 1589 1642 1657 1701 1746 1620 1436 1311 1272 1235 1090 999 849 711 633 545 492 461 439 448 488 494 433 203 0 0 0 0 0 0 0 0 0 0 0 4 0 0 0 2 10 7 6 12 20 11 6
368 520 580 564 469 492 490 494 570 690 762 909 1048 1182 1442 1643 1754 1756 1765 1823 1879 1946 2018 2058 2138 2169 2080 2012 1983 2015 2018 2027 1978 1942 1794 1492 1326 1384 1547 1568 1450 1332 1172 1120 1140 1059 1019 970 822 782 713 653 612 536 461 438 406 364 271 0 0 0 0 0 0 0 0 0 0 0 0 0 0 0 4 3 0 1 9 7 0 0 0 1 2
0 0 440 454 485 288 277 354 406 503 578 654 775 869 1108 1321 1436 1584 1594 1587 1550 1566 1655 1737 1770 1848 1766 1792 1688 1571 1600 1542 1559 1414 1278 1148 1147 1210 1165 1042 931 908 894 862 817 738 734 656 474 372 153 0 123 134 24 0 0 0 0 0 0 0 0 0 0 0 0 0 0 0 0 0 0 1 2 0 0 0 0 0 0 1 0 0 0
0 0 0 17 0 290 63 0 115 28 410 538 687 768 810 948 1116 1250 1215 1206 1233 1227 1280 1410 1578 1604 1649 1485 1287 1274 1335 1393 1379 1250 1176 1237 1235 1102 866 691 631 584 375 0 0 0 0 0 0 0 0 0 0 0 0 0 0 0 0 0 0 0 0 0 0 0 0 0 0 0 0 0 0 0 0 0 0 0 0 0 0 0 0 0 0
0 0 0 0 0 37 0 0 22 146 289 426 526 626 653 654 703 897 1052 1038 1014 1075 1122 1165 1202 1330 1299 1274 1112 957 912 970 1012 959 927 859 628 429 196 226 284 226 212 4 0 0 0 0 0 0 0 0 236 229 50 0 0 0 0 0 0 0 0 0 0 0 0 0 0 0 0 0 0 0 0 0 0 0 0 0 0 0 0 0 0
2 1 2 2 1 1 0 0 0 2 31 190 334 487 582 616 585 580 664 767 864 819 778 901 928 979 1208 1199 1045 881 808 673 571 520 458 389 390 464 539 406 38 0 0 0 0 0 0 0 163 181 162 126 107 0 0 0 0 0 0 0 0 0 0 0 0 0 0 0 0 0 0 0 0 0 0 0 0 0 0 0 0 0 0 0 0
Wind_Speed
17 19 20 18 18 16 14 14 14 16 14 13 13 13 12 12 12 13 15 14 12 11 11 11 11 9 8 6 4 3 2 2 1 1 2 2 3 3 2 4 5 5 5 6 7 8 8 7 5 3 2 2 2 2 3 3 4 5 6 6 6 6 6 7 10 13 11 10 11 12 11 12 12 11 12 12 12 13 17 17 18 18 18 19 19
17 19 20 20 17 17 16 17 17 18 15 14 14 14 14 14 13 14 15 14 13 11 10 10 9 7 6 4 3 2 2 2 2 3 2 3 4 4 4 5 4 5 4 5 6 6 7 8 7 4 2 3 2 2 3 5 5 6 5 6 7 7 6 7 9 11 13 10 10 10 10 9 10 9 10 10 11 11 14 15 17 19 20 20 21
18 21 21 20 18 19 19 19 19 17 15 16 14 15 15 15 15 14 15 15 13 12 11 9 8 6 5 5 4 4 4 4 4 4 4 4 4 4 5 5 5 5 6 5 5 5 6 6 7 5 2 1 2 2 3 5 7 7 7 7 7 8 7 7 8 11 13 11 9 9 8 6 7 7 9 10 11 13 14 16 17 17 19 22 22
20 21 20 20 20 21 20 20 18 18 16 17 15 15 17 16 16 15 15 16 14 13 12 10 8 7 6 5 6 6 6 6 6 6 6 5 4 4 4 5 5 5 5 5 5 5 5 5 5 6 4 2 1 1 1 3 5 5 6 7 7 8 8 8 9 11 11 11 7 7 6 5 5 6 8 10 12 13 15 15 17 19 20 22 23
20 21 20 20 21 21 20 20 19 18 17 17 15 16 17 17 17 15 16 15 14 14 13 11 10 9 8 8 8 8 7 7 6 6 6 6 5 4 4 4 5 5 5 5 5 5 5 5 4 4 4 3 2 1 0 1 2 3 4 4 5 6 7 8 8 8 9 9 7 5 5 5 5 6 8 9 10 12 15 18 19 21 22 23 21
20 21 22 22 21 20 20 20 18 17 17 17 16 17 18 18 18 18 16 15 15 15 14 13 12 10 10 9 9 8 8 8 7 7 6 6 5 4 4 4 5 5 6 6 7 7 6 6 4 4 5 4 2 1 2 1 1 2 3 3 3 4 5 6 6 6 7 7 6 6 4 5 5 7 10 11 11 11 12 14 17 20 21 21 23
22 22 22 22 22 20 20 19 19 18 19 19 19 20 19 19 18 18 17 16 15 15 14 13 14 13 12 10 10 10 9 9 8 8 6 5 5 5 5 5 6 6 6 7 7 8 8 7 5 5 6 5 3 0 2 2 3 2 2 3 3 3 4 4 4 4 5 5 4 5 6 7 7 8 11 12 13 14 13 13 14 15 20 25 29
21 22 23 23 22 20 20 20 19 20 21 22 21 20 21 21 21 20 19 17 16 15 15 15 16 15 13 11 11 11 11 10 9 8 7 6 6 6 7 7 7 8 7 8 7 7 8 7 6 6 7 6 4 1 3 4 5 4 3 3 3 2 3 4 4 4 4 4 3 3 3 4 8 11 13 15 15 16 18 15 13 13 19 28 33
22 23 24 23 22 23 24 23 22 21 22 23 21 21 22 23 23 22 21 19 19 17 17 16 16 15 14 13 13 13 12 10 10 10 9 8 7 7 7 8 8 8 8 7 8 8 7 6 6 5 6 8 7 3 4 8 7 6 5 4 3 3 3 3 3 4 5 4 3 3 4 5 7 10 11 13 15 15 14 13 13 14 18 22 26
23 23 23 22 24 25 26 25 24 23 22 22 22 22 23 24 24 23 21 21 21 21 19 18 17 16 15 14 14 14 13 11 11 11 11 10 10 8 8 8 8 8 8 8 7 8 8 6 5 5 5 8 10 9 6 4 5 5 6 5 4 3 3 2 2 2 4 4 2 2 3 5 7 9 9 10 12 13 13 15 15 13 14 17 19
24 23 23 24 26 27 28 26 25 23 22 23 24 23 22 24 25 25 24 23 23 23 21 19 18 18 17 16 15 15 14 12 14 15 14 11 10 10 8 8 8 8 8 9 9 9 8 8 6 7 9 8 9 11 10 8 5 2 3 6 6 5 4 3 2 1 2 2 3 4 5 5 7 7 8 10 11 12 13 14 15 15 16 15 15
25 25 25 26 27 28 28 28 26 25 24 23 24 24 24 24 24 25 25 24 25 24 22 21 21 20 20 17 16 15 13 13 18 17 17 15 12 10 9 8 8 8 9 9 10 10 9 9 8 8 7 6 5 9 11 11 8 5 2 3 5 6 4 2 2 1 1 2 3 4 5 6 7 9 11 11 10 10 11 13 16 19 20 20 19
26 27 27 27 27 28 29 28 26 26 25 25 26 26 25 23 23 23 23 25 26 24 23 23 23 22 21 19 17 16 13 18 19 19 18 18 16 11 8 8 7 8 9 9 10 10 11 10 9 8 8 10 7 5 6 11 13 9 6 4 4 4 6 7 6 3 0 2 3 4 7 8 10 12 13 12 11 10 10 12 16 19 21 21 21
27 28 28 28 28 29 28 27 27 26 27 27 27 26 24 22 21 22 24 25 25 23 23 23 24 23 22 20 18 16 13 21 20 20 19 19 17 14 8 7 6 6 7 8 10 10 11 10 10 10 9 8 7 7 7 7 9 12 10 7 4 3 7 8 8 10 9 6 6 7 9 11 12 13 13 13 13 13 12 12 12 14 19 22 23
27 28 29 28 28 28 28 27 27 28 28 27 26 24 23 22 22 23 24 23 23 23 23 23 23 23 21 19 18 16 14 21 21 21 20 20 19 16 11 8 7 7 7 8 9 9 10 10 9 8 8 7 8 9 9 10 11 9 8 7 6 6 5 8 10 10 12 11 11 12 11 12 13 15 17 18 19 19 18 15 15 18 20 22 26
28 28 29 28 27 26 27 28 28 28 28 28 26 24 23 22 22 23 23 23 24 25 24 23 22 21 19 17 16 14 14 21 23 21 21 20 22 16 12 10 8 8 9 9 10 10 10 10 8 7 7 5 7 11 12 11 10 9 8 9 8 7 6 6 10 13 12 14 17 16 15 15 16 16 16 18 19 21 20 21 23 23 23 25 28
28 28 28 28 26 26 26 27 28 28 27 27 25 23 23 23 23 25 23 22 23 23 23 21 20 19 18 17 15 15 15 21 24 23 22 24 23 16 14 12 10 9 9 11 11 11 11 11 9 8 7 6 8 15 18 15 8 7 8 9 10 10 9 11 16 17 15 14 12 13 18 21 22 24 23 22 26 26 27 27 27 28 30 30 29
27 28 29 27 26 26 26 26 27 28 27 25 24 24 24 24 24 24 21 21 21 21 22 21 19 18 17 15 16 16 16 21 26 25 25 27 24 19 17 14 11 10 10 11 12 13 12 13 10 8 7 7 10 19 22 20 10 7 8 9 9 9 10 11 13 16 21 18 20 21 22 21 22 22 22 24 26 30 34 35 32 30 31 33 33
26 28 29 29 27 26 26 26 26 27 26 24 24 24 23 24 24 23 21 21 20 22 21 20 19 18 17 15 18 15 16 20 27 26 27 29 25 20 19 16 13 11 11 12 13 14 13 15 15 11 8 8 12 19 22 20 11 9 9 9 9 10 12 13 12 10 13 19 22 24 22 24 24 27 31 34 34 37 38 36 34 34 35 35 37
26 29 31 29 27 26 26 26 26 26 25 25 25 24 24 24 23 22 21 21 21 20 20 19 18 18 18 16 17 15 15 17 26 27 28 28 27 22 20 18 14 12 12 12 13 14 14 14 16 18 13 10 10 16 21 20 13 9 10 9 10 12 15 14 12 12 13 14 15 16 17 20 23 25 25 29 36 41 40 38 37 37 36 37 38
29 31 30 28 26 25 25 25 24 24 25 25 25 24 24 22 22 22 21 21 20 19 18 18 17 18 18 18 16 16 17 16 25 28 28 29 27 23 19 17 15 14 13 13 13 13 15 16 15 20 20 16 16 16 18 20 15 11 9 9 11 18 23 15 13 16 15 16 18 20 20 21 22 24 27 28 29 30 35 40 37 37 37 38 38
31 31 30 27 25 24 24 25 25 25 26 26 25 23 23 22 22 21 21 21 19 18 19 18 18 18 18 17 16 15 17 18 16 26 27 27 26 24 18 16 16 16 15 14 14 14 15 17 17 20 23 21 20 20 18 18 17 14 10 9 13 16 17 15 14 14 15 17 19 20 20 21 22 25 26 27 29 33 34 35 36 36 37 40 41
33 32 29 26 24 24 24 25 25 25 25 24 23 22 23 21 21 21 20 20 18 17 17 17 16 16 15 15 13 12 12 16 14 19 22 24 24 23 21 17 19 17 15 14 14 14 17 16 15 19 26 23 23 22 19 18 19 15 12 11 11 14 18 15 14 15 16 18 20 20 21 23 25 27 29 31 31 33 35 36 37 37 39 40 41
34 31 29 26 24 24 24 24 24 24 23 22 21 21 21 21 20 20 19 17 17 16 16 15 14 13 13 12 12 11 14 11 15 17 21 23 23 24 22 18 16 15 14 11 12 13 14 16 16 20 25 25 25 24 20 22 20 18 18 15 15 19 18 17 18 19 20 21 23 24 24 26 27 30 32 33 33 34 35 36 37 38 38 38 38
33 30 28 26 24 24 24 24 23 22 21 20 20 20 20 20 19 18 17 16 15 15 16 16 15 14 13 13 12 12 11 10 10 19 25 25 24 23 22 21 17 14 12 11 9 9 22 31 32 29 26 26 26 25 24 23 19 19 22 23 24 23 22 21 21 22 24 25 25 26 26 28 32 34 34 34 33 33 36 38 38 38 37 38 38
31 29 28 26 24 23 22 22 21 20 21 21 21 21 20 19 19 19 18 17 17 17 18 17 17 16 15 14 13 12 12 12 11 15 23 25 23 23 23 22 20 18 16 11 9 12 18 21 28 31 33 32 30 26 21 27 28 25 26 28 27 26 25 26 26 26 25 26 25 25 29 33 35 36 36 34 34 35 36 37 38 39 40 39 39
31 29 27 25 24 22 21 22 23 23 22 23 22 22 22 22 22 21 20 20 20 20 20 20 19 19 17 16 16 15 15 14 15 16 24 24 23 23 22 20 20 19 17 14 10 11 17 19 22 27 29 31 29 33 36 36 33 31 30 29 28 28 30 29 28 28 27 27 28 30 33 36 37 36 36 36 36 37 39 39 39 40 41 41 40
29 28 26 26 26 25 25 26 26 26 25 24 24 24 24 24 23 23 22 23 22 22 21 21 21 20 19 20 19 20 19 18 18 18 20 24 25 26 27 27 27 28 24 22 20 18 17 29 28 24 24 23 24 22 23 25 26 27 29 30 30 32 35 36 33 31 31 32 33 35 36 37 37 37 37 37 38 40 42 42 42 41 43 43 43
31 29 30 31 31 31 30 30 28 29 29 28 29 36 33 28 26 27 27 26 26 25 24 26 25 24 23 23 23 22 22 21 21 23 25 26 26 26 29 29 30 31 30 30 28 26 25 23 21 23 21 21 21 22 24 27 27 28 30 32 33 35 34 34 35 36 36 36 36 37 37 37 38 39 39 40 43 43 46 46 45 44 44 46 46
33 33 33 34 35 35 34 34 32 31 32 31 37 44 49 53 50 40 36 47 49 50 46 35 36 32 27 26 26 25 26 32 39 34 38 38 34 31 33 35 35 33 39 42 36 33 33 28 26 26 27 27 27 26 27 28 29 30 31 34 35 34 36 36 37 38 39 38 38 37 37 38 39 41 42 44 46 46 50 nan 49 46 46 48 48
35 34 35 36 38 41 39 38 37 36 35 34 35 42 44 51 57 56 52 48 49 51 51 50 50 49 44 36 38 46 48 47 48 44 40 39 39 43 43 43 46 47 49 46 40 37 35 33 31 31 31 31 31 31 31 31 31 32 34 36 35 37 38 38 38 39 40 39 38 37 39 40 41 42 43 45 46 47 49 50 47 45 nan nan nan
36 36 37 38 42 42 41 40 40 40 39 39 38 40 42 43 47 58 58 55 55 56 55 54 52 51 51 48 44 41 50 52 50 48 46 46 46 46 46 48 48 50 49 48 43 41 38 38 38 36 35 35 35 36 36 36 37 36 38 40 40 39 39 38 41 39 39 40 40 41 41 42 43 44 46 48 48 nan 47 46 nan nan nan nan nan
34 36 38 40 42 42 42 42 41 40 35 37 39 41 39 40 45 48 53 58 59 59 60 58 56 54 55 55 54 51 50 50 52 51 50 50 50 48 48 48 49 50 52 46 42 42 41 41 40 39 39 39 40 40 41 42 42 42 43 43 43 42 42 46 46 43 42 43 43 43 42 44 45 46 48 nan 49 48 47 nan nan nan nan nan nan
34 36 37 40 40 41 41 40 40 38 35 33 35 37 38 39 40 47 50 50 55 59 63 63 59 56 59 57 56 55 55 54 53 53 53 52 52 53 54 49 50 50 47 45 45 42 42 41 40 39 40 42 49 49 50 49 49 47 48 49 47 45 46 48 47 46 44 46 43 42 43 45 48 48 48 49 48 nan nan nan nan nan nan nan nan
40 44 43 39 40 41 43 43 42 41 41 40 37 36 36 36 35 41 43 46 47 51 52 55 58 56 52 52 53 54 54 54 54 53 54 55 56 57 59 55 52 49 45 44 43 41 38 39 42 44 45 47 46 44 48 49 49 49 50 50 47 43 45 46 45 44 44 45 44 44 45 46 48 48 nan nan nan 46 47 nan nan nan nan nan nan
37 36 39 39 40 42 44 44 44 44 43 42 42 41 40 38 37 36 37 42 48 51 51 51 50 51 54 54 51 53 55 54 54 54 55 57 57 55 52 52 53 51 49 46 44 44 43 43 43 42 43 43 41 41 43 45 45 47 48 48 46 45 43 43 43 42 43 44 45 47 49 48 nan nan nan nan nan nan nan nan nan nan nan nan nan
41 39 38 39 41 42 44 45 43 43 43 42 43 42 42 42 41 42 44 46 46 46 48 48 49 51 52 51 53 55 57 58 57 56 55 52 48 47 50 49 48 49 49 46 43 42 44 43 42 42 41 41 40 41 42 42 42 44 45 45 46 44 44 43 45 45 44 45 47 49 48 47 47 nan nan nan nan nan nan nan nan nan nan nan nan
51 50 50 50 47 49 47 46 48 47 43 42 41 41 42 44 44 44 43 42 41 42 44 45 46 49 50 49 47 49 54 56 60 58 56 55 53 51 51 49 46 47 48 45 42 42 42 41 40 40 41 41 42 42 41 40 39 39 39 40 41 44 46 48 47 45 45 44 45 47 47 48 nan nan nan nan nan nan nan nan nan nan nan nan 60
54 57 57 55 54 49 48 47 45 43 42 40 39 38 38 40 42 41 40 39 39 40 40 42 43 45 47 48 49 51 53 51 50 51 51 51 51 50 48 48 47 47 46 47 45 43 42 41 41 41 42 42 42 42 40 38 37 38 38 40 42 44 42 43 44 44 44 44 45 46 nan nan nan nan nan nan nan nan nan nan nan nan nan nan nan
57 56 54 50 50 52 52 50 48 45 42 40 39 38 38 39 38 39 38 38 38 38 39 40 42 42 43 44 44 43 46 47 47 46 45 46 47 46 44 45 46 46 45 45 45 44 43 43 42 43 43 42 41 41 40 40 41 42 42 41 42 42 41 41 43 44 45 nan nan nan nan nan nan nan nan nan nan nan nan nan nan nan nan nan nan
54 54 55 55 53 53 54 52 49 46 44 43 41 40 39 39 39 39 39 40 40 40 40 40 41 41 40 40 42 42 43 44 44 44 44 45 46 46 45 45 46 46 45 45 45 44 44 44 42 42 41 41 41 41 42 43 44 45 44 43 43 43 43 44 46 47 47 48 48 nan nan nan nan nan nan nan nan nan nan nan nan nan nan nan nan
54 53 54 55 57 56 54 52 50 49 48 47 45 43 40 38 38 38 40 41 41 41 42 42 42 42 45 51 51 49 45 45 45 45 46 46 46 46 45 44 44 43 43 43 43 42 43 44 44 42 41 41 41 41 43 44 45 45 44 44 44 44 46 48 49 50 49 50 nan nan nan nan nan nan nan nan nan nan nan nan nan nan nan nan nan
56 56 56 56 57 56 54 52 50 50 50 50 49 48 44 41 39 39 40 41 42 42 43 44 44 44 45 47 50 49 47 47 47 48 47 47 46 45 44 44 42 41 40 41 41 42 44 46 46 46 46 45 44 45 46 47 47 48 48 49 49 49 51 53 53 52 nan nan nan nan nan nan nan nan nan nan nan nan nan nan nan nan nan nan nan
57 57 57 57 57 55 54 52 51 51 51 53 53 51 48 45 43 41 41 42 42 42 44 45 47 47 46 46 45 46 47 47 47 48 48 47 47 47 46 45 44 43 42 42 42 42 43 43 43 45 47 47 48 49 49 49 49 50 51 52 54 53 54 55 54 nan nan nan nan nan nan nan nan nan nan nan nan nan nan nan nan nan nan nan nan
59 58 57 57 56 56 56 55 53 52 51 52 53 54 52 49 46 44 43 43 43 43 43 44 46 47 47 48 48 49 50 50 50 50 50 50 49 49 48 47 46 46 46 46 45 45 46 46 46 46 47 47 48 49 50 51 51 52 54 54 55 55 55 55 nan nan nan nan nan nan nan nan nan nan nan nan nan nan nan nan nan nan nan nan nan
63 61 60 59 58 58 57 56 55 54 53 52 53 54 54 52 50 47 46 45 44 44 43 43 43 44 46 48 50 51 51 51 51 50 51 51 51 50 50 49 48 48 49 49 49 49 49 50 50 49 49 49 49 50 52 54 55 56 57 58 57 57 nan nan nan nan nan nan nan nan nan nan nan nan nan nan nan nan nan nan nan nan nan nan nan
66 64 63 62 61 61 60 59 57 57 56 55 54 54 55 54 53 51 48 47 46 45 44 43 42 43 45 47 49 51 51 51 51 51 51 51 51 51 50 50 50 50 50 50 50 50 50 50 51 52 52 52 53 55 56 56 57 58 59 nan nan nan nan nan nan nan nan nan nan nan nan nan nan nan nan nan nan nan nan nan nan nan nan nan nan
nan nan 65 64 63 62 62 62 62 62 60 59 57 56 56 55 55 53 50 49 49 47 46 45 45 45 45 47 48 50 52 52 52 51 51 50 50 50 50 51 51 51 51 52 52 52 53 53 54 55 57 nan 58 58 nan nan nan nan nan nan nan nan nan nan nan nan nan nan nan nan nan nan nan nan nan nan nan nan nan nan nan nan nan nan nan
nan nan nan nan nan 65 nan nan 64 nan 62 61 61 60 58 58 57 56 54 52 51 50 49 47 46 47 48 47 48 50 51 52 51 51 50 49 49 49 50 50 51 52 52 nan nan nan nan nan nan nan nan nan nan nan nan nan nan nan nan nan nan nan nan nan nan nan nan nan nan nan nan nan nan nan nan nan nan nan nan nan nan nan nan nan nan
nan nan nan nan nan nan nan nan nan 67 66 65 64 63 62 61 60 58 57 56 54 53 52 51 49 49 49 49 50 50 51 52 52 51 49 48 48 48 48 49 50 51 52 nan nan nan nan nan nan nan nan nan 62 63 nan nan nan nan nan nan nan nan nan nan nan nan nan nan nan nan nan nan nan nan nan nan nan nan nan nan nan nan nan nan nan
nan nan nan nan nan nan nan nan nan nan nan 68 66 66 66 65 63 62 61 59 57 55 54 53 51 49 50 50 51 52 54 55 54 54 52 51 50 50 50 51 nan nan nan nan nan nan nan nan 60 61 62 63 63 nan nan nan nan nan nan nan nan nan nan nan nan nan nan nan nan nan nan nan nan nan nan nan nan nan nan nan nan nan nan nan nan
Wind_Direction
240 237 234 230 228 222 216 217 224 223 218 214 207 206 205 199 198 186 186 180 180 170 161 156 154 152 145 151 136 140 136 111 60 26 21 5 358 10 6 349 1 10 15 32 32 30 39 47 56 78 106 98 117 125 109 94 95 107 114 117 117 119 119 122 123 123 124 119 115 111 111 107 95 78 71 64 53 38 27 30 32 27 23 20 20
238 241 240 239 239 233 226 224 227 227 224 219 211 209 207 206 203 195 187 188 184 178 173 170 167 163 161 171 188 197 261 293 325 313 326 334 347 329 338 347 354 1 356 4 13 18 22 35 41 53 78 94 102 107 109 106 98 108 116 118 124 124 119 118 117 118 119 118 108 105 100 91 86 64 58 58 52 36 33 27 21 19 16 16 15
240 239 241 243 247 241 234 230 231 235 232 222 215 213 212 211 209 200 192 194 190 183 186 181 187 185 185 203 230 250 274 289 292 294 300 324 339 340 330 336 348 348 345 352 356 353 13 23 29 29 30 62 71 94 106 106 115 120 123 128 125 128 127 112 117 118 119 120 121 112 101 94 80 65 52 47 40 28 25 23 22 16 11 13 14
240 242 243 246 249 245 242 238 240 239 234 225 220 214 215 215 213 205 200 194 196 195 192 196 205 212 219 231 248 257 271 279 282 287 301 319 330 332 332 327 333 339 339 342 339 332 354 13 23 20 9 9 31 79 117 109 113 119 121 124 125 123 129 125 116 120 122 121 124 119 120 108 80 55 45 39 35 24 19 19 18 16 13 11 10
243 243 245 248 249 248 248 244 243 243 240 232 227 220 219 219 216 212 207 197 199 205 204 206 216 229 234 249 259 267 275 283 287 291 296 308 323 320 313 313 322 331 329 329 325 318 328 357 7 3 1 6 9 14 204 81 116 126 124 135 137 141 141 133 128 123 118 116 121 115 101 78 53 31 27 38 32 26 19 15 14 12 8 3 356
247 246 244 245 247 252 251 249 249 249 246 241 234 226 224 222 222 217 211 205 204 207 214 216 226 238 243 251 260 270 277 285 291 298 310 310 303 299 291 293 306 318 324 325 323 315 317 339 350 340 346 3 14 292 231 201 209 127 118 136 147 151 141 136 134 124 115 113 110 101 60 56 34 8 10 17 24 23 17 12 12 6 356 350 347
250 249 248 248 246 249 252 254 250 249 247 242 236 231 228 229 227 223 218 211 212 214 220 226 231 238 247 252 261 271 281 290 293 302 308 304 295 291 290 297 300 305 317 325 323 319 319 326 335 335 335 351 21 297 257 242 217 169 160 150 156 152 145 144 134 116 104 98 76 55 47 19 7 6 359 2 8 6 9 13 12 353 345 349 351
256 254 251 248 246 248 248 251 250 248 245 242 238 234 232 232 231 227 223 219 218 222 225 234 237 240 246 255 263 269 280 288 296 299 296 291 286 290 293 296 307 314 319 321 320 316 316 322 332 332 330 331 345 307 249 241 229 215 210 200 192 177 166 162 151 134 116 104 75 49 31 359 348 356 359 358 359 354 350 358 3 349 348 351 353
261 257 254 252 250 247 244 243 245 247 245 244 241 237 235 234 235 232 229 223 222 226 230 235 242 245 249 255 263 269 277 284 284 287 286 289 287 294 300 304 308 311 316 320 315 309 309 312 319 332 324 322 334 308 240 233 235 233 227 219 203 198 180 169 151 133 121 113 98 50 32 358 346 352 356 352 353 351 340 347 357 351 356 358 350
269 262 260 257 253 250 246 242 243 245 246 246 245 243 239 237 238 237 235 231 229 229 233 238 244 250 253 258 262 267 271 271 277 295 287 280 291 285 288 292 297 303 307 310 310 309 308 305 302 328 316 312 317 325 322 266 230 210 208 207 207 200 178 159 147 122 117 109 81 38 11 352 343 347 354 355 356 355 352 345 351 357 4 12 3
281 274 265 258 254 252 249 246 243 245 246 244 244 244 243 239 237 238 238 237 235 236 237 244 247 251 257 258 265 266 269 266 286 290 296 297 288 289 289 284 287 294 302 305 305 305 301 303 294 296 304 306 315 329 333 330 321 318 114 137 168 181 183 157 151 128 101 66 44 10 352 352 355 348 350 357 359 7 358 351 348 352 1 13 22
287 279 268 260 256 256 253 251 248 247 246 246 246 245 244 243 240 241 240 242 240 240 243 246 249 252 254 259 264 267 267 273 284 293 301 307 304 293 287 283 280 288 296 304 303 302 304 301 296 287 289 307 309 314 326 333 326 322 18 80 89 93 97 124 153 154 38 37 17 345 330 339 340 341 346 347 351 356 6 3 343 344 355 5 14
281 278 273 267 261 258 256 255 253 250 247 247 245 244 246 246 246 245 244 242 242 243 245 248 252 253 255 259 263 267 263 276 284 295 303 311 318 318 294 288 286 288 295 303 303 301 297 295 293 287 277 302 316 325 301 306 324 338 336 19 65 56 49 51 50 41 14 24 9 341 331 337 349 349 343 338 335 3 21 2 339 342 350 359 10
275 277 275 272 265 261 260 258 256 253 250 248 246 247 249 249 248 246 242 242 242 244 247 250 251 255 256 259 260 260 261 275 289 295 304 311 315 314 304 303 294 288 290 293 295 301 303 297 292 287 287 294 304 318 315 310 289 289 284 270 261 335 10 23 17 20 11 6 12 352 342 343 348 344 338 335 345 352 2 3 352 351 352 1 8
269 272 274 272 269 265 263 262 260 255 252 250 248 248 248 246 247 244 243 244 245 245 247 250 251 255 258 259 259 260 256 274 287 294 300 306 310 307 302 297 291 288 289 292 297 300 303 303 301 289 283 289 294 311 316 307 299 280 259 244 249 249 279 308 318 316 319 332 343 347 347 346 346 346 342 340 347 348 354 1 350 352 6 7 1
267 268 270 273 274 270 267 264 261 258 255 252 251 249 248 248 248 246 242 242 243 245 247 249 254 258 258 259 258 258 256 275 280 289 295 299 301 290 298 299 296 292 292 296 299 301 307 311 303 295 287 288 309 322 324 311 296 279 258 244 232 233 238 261 280 295 312 320 322 323 328 333 329 335 336 339 341 345 349 348 344 351 357 357 355
266 269 272 272 274 274 271 267 263 261 257 254 252 250 249 250 248 247 246 245 246 249 251 252 252 255 258 258 257 252 249 266 279 286 290 294 289 289 296 294 296 302 298 298 301 306 307 309 307 292 294 299 314 321 326 324 316 284 253 234 229 229 234 253 303 325 336 347 356 345 335 340 346 346 345 343 340 337 333 341 351 347 347 351 352
265 267 269 271 273 275 274 271 265 261 257 256 253 250 249 248 251 252 252 251 249 251 251 249 251 253 258 261 261 254 249 263 280 285 291 295 296 293 291 294 299 299 296 298 295 297 305 316 310 307 301 297 310 317 322 318 318 292 258 237 232 234 244 259 270 302 334 338 332 335 337 341 343 340 338 343 350 340 340 345 344 340 343 342 342
266 269 269 269 271 275 276 273 266 262 258 255 251 251 251 251 251 253 252 251 249 248 250 250 252 254 258 260 262 263 254 263 282 288 294 298 298 291 293 294 300 301 294 291 294 292 295 301 316 320 307 295 299 308 316 316 313 289 265 248 236 233 246 256 274 282 289 300 307 312 319 329 328 327 332 344 348 339 336 342 336 334 336 336 335
265 263 264 267 269 272 273 274 267 261 257 253 249 247 247 248 252 254 253 250 248 247 250 250 255 255 256 259 258 266 263 261 279 294 296 299 308 294 293 297 303 304 294 289 285 290 292 292 299 314 327 322 306 306 310 317 310 286 266 257 241 239 248 266 278 278 283 286 289 295 296 303 317 322 324 327 329 330 335 335 333 333 334 335 335
258 259 263 266 269 274 274 275 270 259 252 249 247 245 246 248 250 251 251 248 247 246 250 250 251 252 253 255 254 262 265 270 277 298 299 304 309 307 296 303 304 295 291 288 288 287 286 288 284 299 314 321 324 329 322 316 308 290 277 257 248 236 237 254 265 265 275 282 292 298 302 311 316 319 320 322 324 322 325 331 332 329 329 333 335
258 260 264 268 271 276 277 270 262 252 247 245 245 245 245 247 247 249 246 246 248 249 249 248 247 249 252 255 255 258 267 283 275 296 306 310 314 324 307 311 305 298 295 293 290 286 284 278 280 288 302 311 322 327 328 316 313 290 281 258 235 236 251 258 264 272 280 288 290 297 305 308 309 309 312 312 312 317 319 319 320 323 328 331 333
260 261 264 269 273 277 275 270 258 246 244 245 245 245 245 246 246 245 245 245 248 249 250 249 248 248 249 251 252 254 255 268 291 284 310 315 321 325 330 319 308 307 301 299 292 283 277 278 279 285 293 303 312 316 315 314 299 291 290 274 275 262 260 275 276 281 288 292 296 301 303 307 308 308 307 307 311 310 312 316 321 324 328 331 333
258 260 263 270 273 275 272 264 253 245 244 243 242 243 243 243 242 241 242 239 240 243 242 245 241 240 243 245 247 246 253 254 283 302 299 320 318 326 329 332 314 311 312 304 305 291 282 278 273 278 290 297 303 306 308 300 291 302 301 297 284 272 276 281 290 291 294 299 301 302 303 306 306 304 305 305 307 307 312 317 322 325 325 327 331
256 259 263 267 270 270 265 257 252 245 242 241 239 237 238 239 236 234 234 233 230 229 232 234 235 233 233 238 240 247 252 267 270 297 310 313 320 323 328 331 337 327 318 320 305 310 260 251 249 258 275 286 289 285 280 287 296 284 284 286 284 283 288 289 292 296 299 299 300 302 304 302 302 302 301 303 305 310 317 318 318 319 320 325 329
252 256 260 264 268 266 262 255 249 242 238 233 232 229 230 230 226 228 226 223 221 222 224 227 230 231 234 236 241 247 256 256 267 281 297 303 308 318 325 328 332 334 332 323 316 258 255 271 270 273 273 271 274 279 281 278 288 286 284 284 284 287 290 291 293 296 298 297 299 299 299 299 299 298 298 302 306 308 309 310 312 315 316 319 323
247 251 255 260 261 256 252 243 240 237 234 230 229 227 225 224 224 225 228 226 225 224 223 228 231 236 237 241 243 247 253 258 264 270 277 280 284 290 296 299 310 307 298 293 288 284 286 284 279 270 265 271 266 267 273 277 281 282 284 287 288 287 287 290 293 293 295 294 294 296 295 294 294 297 301 302 304 305 304 304 308 311 314 317 319
240 244 250 249 247 246 242 241 240 236 234 231 229 227 224 223 224 227 229 230 230 229 230 232 236 239 242 246 247 250 254 258 261 267 273 275 279 285 291 294 294 297 299 295 295 297 294 277 280 285 283 285 286 284 283 284 286 288 288 289 289 287 281 278 281 288 288 290 290 289 292 293 296 298 298 300 301 299 299 300 303 309 313 315 316
232 237 240 241 242 243 243 242 239 234 234 232 228 222 219 222 225 227 226 227 228 232 233 235 239 238 239 244 249 252 254 259 263 262 259 264 273 279 286 290 292 292 299 300 293 291 294 292 287 290 291 292 292 290 287 285 286 287 288 289 289 288 289 291 292 292 292 290 291 292 293 294 295 296 297 300 300 299 298 299 301 306 312 315 315
230 231 234 238 241 243 241 240 240 236 235 236 235 229 225 225 219 219 225 221 225 227 228 231 232 232 238 245 247 247 246 246 243 257 263 265 268 268 272 281 288 284 290 296 293 290 292 293 291 289 291 291 292 293 292 291 289 287 286 283 284 286 287 288 288 289 288 289 290 291 292 293 295 296 297 298 298 298 299 nan 300 300 308 312 312
226 227 231 236 241 241 238 235 236 234 232 236 238 239 233 227 225 225 225 225 229 232 234 235 236 235 237 240 241 241 251 251 248 250 259 267 270 268 266 272 277 279 287 289 292 294 295 296 293 291 290 289 289 290 290 290 289 287 284 283 283 282 283 284 286 286 287 290 291 292 293 295 296 297 298 298 296 297 301 302 299 300 nan nan nan
226 226 229 233 241 244 243 242 239 239 237 235 239 241 238 236 232 227 227 229 232 233 234 234 236 240 241 243 244 250 251 253 258 259 264 268 272 275 275 278 281 285 291 292 290 291 293 294 293 292 290 288 287 285 285 285 283 283 283 282 282 282 283 284 283 284 285 286 288 289 292 295 298 299 299 298 297 nan 300 301 nan nan nan nan nan
227 227 229 233 237 244 246 249 249 251 252 246 242 243 242 239 239 237 232 232 235 237 236 235 237 240 244 246 247 251 254 256 259 262 266 270 273 276 278 280 283 285 285 285 287 288 289 290 288 286 284 281 278 279 279 278 279 280 279 279 279 280 282 279 278 280 282 282 282 286 290 294 297 298 301 nan 301 300 299 nan nan nan nan nan nan
228 227 230 234 238 242 246 251 254 257 258 256 251 250 248 245 243 244 244 242 240 240 242 240 238 242 245 250 255 257 260 263 265 268 271 273 276 277 275 273 276 282 281 283 284 286 286 285 282 280 279 277 272 269 271 271 270 269 270 271 270 274 278 279 281 283 285 286 288 289 291 294 296 298 300 301 299 nan nan nan nan nan nan nan nan
229 228 231 238 242 244 247 249 252 255 258 258 260 260 259 258 255 255 253 252 252 251 250 248 245 240 250 255 259 263 266 269 271 274 276 278 277 278 276 276 278 278 278 280 284 283 283 283 278 272 270 270 272 275 274 273 272 272 272 274 277 278 277 276 278 282 286 288 289 290 290 291 294 297 nan nan nan 298 297 nan nan nan nan nan nan
231 236 238 240 244 247 249 252 254 258 261 263 264 266 266 267 266 265 263 260 257 255 253 251 252 251 253 256 264 267 268 270 272 274 277 279 280 278 277 279 280 279 277 279 279 273 272 276 280 281 279 280 281 281 281 279 277 274 274 275 276 274 273 277 280 283 286 288 288 287 287 292 nan nan nan nan nan nan nan nan nan nan nan nan nan
226 231 236 240 244 248 249 250 254 256 260 263 266 268 270 269 269 268 263 260 259 256 256 259 259 256 255 256 259 263 266 269 269 271 273 277 277 274 278 281 283 283 282 280 279 278 277 278 280 283 283 285 288 289 288 285 281 277 275 275 273 273 273 276 279 286 287 286 285 286 289 291 290 nan nan nan nan nan nan nan nan nan nan nan nan
224 225 227 228 238 245 248 249 248 251 258 260 262 265 268 265 265 264 265 265 264 262 261 260 260 262 262 261 262 262 264 266 267 267 268 268 269 272 273 273 275 279 281 281 281 279 277 278 280 282 282 282 283 284 286 288 287 284 281 282 282 276 275 280 283 286 286 284 284 286 288 290 nan nan nan nan nan nan nan nan nan nan nan nan 310
229 228 224 223 230 238 246 248 250 252 253 257 261 263 266 266 262 263 265 266 265 264 265 264 263 264 265 266 265 267 268 266 269 271 271 271 271 273 275 278 279 279 279 279 279 280 281 282 282 283 283 283 283 284 286 288 287 285 284 286 288 287 287 284 285 285 285 285 285 285 nan nan nan nan nan nan nan nan nan nan nan nan nan nan nan
226 230 229 228 237 236 240 242 245 247 248 251 253 257 259 260 262 264 265 265 265 265 265 264 264 265 267 270 268 266 264 266 268 269 270 271 270 268 271 275 277 277 277 277 277 278 279 279 279 279 280 281 282 284 286 287 286 285 283 282 282 281 281 282 283 284 283 nan nan nan nan nan nan nan nan nan nan nan nan nan nan nan nan nan nan
232 232 234 232 231 238 239 241 243 243 243 244 246 248 249 252 256 259 261 262 263 263 262 262 261 259 254 251 250 257 263 265 266 264 263 263 263 264 264 266 269 271 272 274 275 275 275 275 275 275 277 280 284 285 286 287 288 287 285 282 279 278 280 285 287 285 283 284 285 nan nan nan nan nan nan nan nan nan nan nan nan nan nan nan nan
231 231 232 233 232 235 238 241 242 242 242 241 242 243 245 248 252 256 258 260 261 261 261 258 256 256 252 250 249 253 262 265 264 263 263 264 265 265 266 267 268 270 274 275 276 276 276 275 275 275 277 282 284 284 284 286 287 288 287 285 282 280 280 283 284 283 282 283 nan nan nan nan nan nan nan nan nan nan nan nan nan nan nan nan nan
226 227 228 229 230 234 236 237 238 239 240 240 240 241 242 244 248 252 255 256 258 260 261 261 259 256 255 254 256 256 258 260 261 262 262 262 262 261 262 263 265 266 267 269 271 273 274 273 272 272 274 276 278 280 281 283 283 283 283 282 280 277 277 279 281 281 nan nan nan nan nan nan nan nan nan nan nan nan nan nan nan nan nan nan nan
221 222 224 226 229 232 234 237 238 239 240 240 240 238 239 241 244 247 250 253 254 256 257 259 259 259 259 256 257 259 261 262 261 261 261 261 261 261 262 263 264 265 266 267 269 271 273 273 273 273 274 275 275 276 278 279 279 280 279 280 280 278 278 279 280 nan nan nan nan nan nan nan nan nan nan nan nan nan nan nan nan nan nan nan nan
216 219 221 224 227 231 234 237 241 242 243 242 240 238 238 239 241 244 248 250 251 253 255 257 259 260 258 256 257 258 260 261 261 261 261 262 263 263 264 265 265 266 267 267 268 269 271 272 274 276 276 276 276 277 278 277 277 277 277 277 278 279 279 280 nan nan nan nan nan nan nan nan nan nan nan nan nan nan nan nan nan nan nan nan nan
216 218 221 224 227 230 233 236 239 241 243 244 244 241 240 240 242 245 247 249 250 252 255 259 260 259 258 258 257 258 260 261 262 262 263 263 263 264 265 266 267 267 268 268 269 269 271 273 275 276 276 276 276 276 276 276 276 276 276 276 277 279 nan nan nan nan nan nan nan nan nan nan nan nan nan nan nan nan nan nan nan nan nan nan nan
219 221 222 225 227 230 232 234 237 240 243 244 245 244 243 242 243 245 248 249 251 252 255 259 263 266 266 263 260 259 259 260 261 261 261 261 262 264 265 266 267 268 268 268 268 269 269 270 272 273 273 274 274 274 274 274 275 276 277 nan nan nan nan nan nan nan nan nan nan nan nan nan nan nan nan nan nan nan nan nan nan nan nan nan nan
nan nan 226 227 229 232 234 236 238 240 242 244 245 245 245 244 244 246 248 249 251 251 253 258 262 266 269 269 264 260 259 259 259 260 260 261 261 263 264 265 266 267 268 268 269 270 270 271 272 273 274 nan 273 274 nan nan nan nan nan nan nan nan nan nan nan nan nan nan nan nan nan nan nan nan nan nan nan nan nan nan nan nan nan nan nan
nan nan nan nan nan 233 nan nan 238 nan 242 244 246 246 246 246 246 247 249 251 252 253 254 255 257 262 267 269 266 262 260 260 261 260 260 260 261 262 264 266 267 269 270 nan nan nan nan nan nan nan nan nan nan nan nan nan nan nan nan nan nan nan nan nan nan nan nan nan nan nan nan nan nan nan nan nan nan nan nan nan nan nan nan nan nan
nan nan nan nan nan nan nan nan nan 241 242 243 245 246 246 246 246 247 249 250 252 254 255 256 258 262 265 266 266 262 259 259 258 258 259 260 262 264 266 267 268 269 271 nan nan nan nan nan nan nan nan nan 279 280 nan nan nan nan nan nan nan nan nan nan nan nan nan nan nan nan nan nan nan nan nan nan nan nan nan nan nan nan nan nan nan
nan nan nan nan nan nan nan nan nan nan nan 243 245 245 245 246 247 248 249 250 251 253 254 254 256 259 262 263 262 260 258 257 257 256 256 258 260 262 264 266 nan nan nan nan nan nan nan nan 277 278 278 279 279 nan nan nan nan nan nan nan nan nan nan nan nan nan nan nan nan nan nan nan nan nan nan nan nan nan nan nan nan nan nan nan nan